Regional Weather Roundup
Issued by NWS Little Rock, AR

Home | Current Version | Previous Version | Graphics & Text | Print | Product List | Glossary On
Versions: 1 2 3 4 5 6 7 8 9 10 11 12 13 14 15 16 17 18 19 20 21 22 23 24 25 26 27 28 29 30 31 32 33 34 35 36 37 38 39 40 41 42 43 44 45 46 47 48 49
000
ASUS44 KLZK 281205
RWRLZK

WEATHER ROUNDUP FOR ARKANSAS
NATIONAL WEATHER SERVICE LITTLE ROCK AR
600 AM CST SAT FEB 28 2015

NOTE: "FAIR" INDICATES FEW OR NO CLOUDS BELOW 12,000 FEET WITH NO
SIGNIFICANT WEATHER AND/OR OBSTRUCTIONS TO VISIBILITY.

ARZ001-003-010-029-281300-
NORTHWEST ARKANSAS

CITY           SKY/WX    TMP DP  RH WIND       PRES   REMARKS
FAYETTEVILLE   FLURRIES  19  17  92 CALM      30.46R
6HR MIN TEMP:  18; 6HR MAX TEMP:  19; 6HR PCP:  0.01;

FORT SMITH     LGT SNOW  23  19  85 E9        30.51R FOG     WCI  13
6HR MIN TEMP:  23; 6HR MAX TEMP:  23; 6HR PCP:  0.05;

HARRISON       LGT SNOW  17  14  88 E9        30.48R FOG     WCI   6
6HR MIN TEMP:  17; 6HR MAX TEMP:  18; 6HR PCP:  0.01;

BENTONVILLE    CLOUDY    19  14  79 E8        30.46R WCI   9
6HR MIN TEMP:  18; 6HR MAX TEMP:  19;

ROGERS         FLURRIES  19  16  88 E7        30.46R WCI  10
6HR MIN TEMP:  17; 6HR MAX TEMP:  19; 6HR PCP: TRACE;

SILOAM SPGS    CLOUDY    19  10  68 E3        30.47R
6HR MIN TEMP:  18; 6HR MAX TEMP:  19;

HIGHFILL       FLURRIES  20  16  84 E7        30.45R WCI  11
6HR MIN TEMP:  19; 6HR MAX TEMP:  20; 6HR PCP: TRACE;

SPRINGDALE     LGT SNOW  19  16  86 E7        30.47  FOG     WCI  10
$$

ARZ004-005-016-281300-
NORTH CENTRAL ARKANSAS

CITY           SKY/WX    TMP DP  RH WIND       PRES   REMARKS
BATESVILLE     CLOUDY    21  16  79 NE6       30.56F WCI  14
6HR MIN TEMP:  21; 6HR MAX TEMP:  21;

FLIPPIN        PTCLDY    19  12  73 E5        30.53S WCI  13
6HR MIN TEMP:  19; 6HR MAX TEMP:  19;

MTN HOME       LGT SNOW  18  15  88 E7        30.52R FOG     WCI   9
6HR MIN TEMP:  18; 6HR MAX TEMP:  19; 6HR PCP: TRACE;

$$

ARZ040-041-281300-
WEST CENTRAL ARKANSAS

CITY           SKY/WX    TMP DP  RH WIND       PRES   REMARKS
MENA           CLOUDY    27  21  80 NE7       30.44S WCI  19
MOUNT IDA      CLOUDY    23  19  85 VRB3      30.45S
6HR MIN TEMP:  23; 6HR MAX TEMP:  26; 6HR PCP:  0.04;

$$

ARZ009-017-025-026-028-281300-
NORTHEAST ARKANSAS

CITY           SKY/WX    TMP DP  RH WIND       PRES   REMARKS
CORNING        LGT SNOW  21  18  86 NE15      30.61S WCI   8
JONESBORO      CLOUDY    23  18  81 NE16      30.58R WCI  10
6HR MIN TEMP:  23; 6HR MAX TEMP:  24;

NEWPORT        CLOUDY    24  19  81 NE14      30.59S WCI  12
6HR MIN TEMP:  24; 6HR MAX TEMP:  25; 6HR PCP: TRACE;

WALNUT RIDGE   CLOUDY    21  16  79 NE14      30.60R WCI   8
6HR MIN TEMP:  21; 6HR MAX TEMP:  25;

BLYTHEVILLE    CLOUDY    25  17  72 NE12      30.60R WCI  14
6HR MIN TEMP:  25; 6HR MAX TEMP:  26;

$$

ARZ022-023-033-042-044-281300-
CENTRAL ARKANSAS

CITY           SKY/WX    TMP DP  RH WIND       PRES   REMARKS
LITTLE ROCK    CLOUDY    27  16  63 NE12      30.54R WCI  17
6HR MIN TEMP:  26; 6HR MAX TEMP:  27; 6HR PCP: TRACE;

N LITTLE ROCK    N/A     25  19  80 NE7       30.54R WCI  17
6HR MIN TEMP:  23; 6HR MAX TEMP:  25; 6HR PCP: TRACE;

JACKSONVILLE   CLOUDY    26  17  69 NE13      30.53R WCI  14
6HR MIN TEMP:  24; 6HR MAX TEMP:  26; 6HR PCP: TRACE;

SEARCY         FLURRIES  25  18  74 NE14      30.57R WCI  13
6HR MIN TEMP:  24; 6HR MAX TEMP:  25; 6HR PCP: TRACE;

HOT SPRINGS    CLOUDY    25  17  72 E9        30.50R WCI  15
6HR MIN TEMP:  24; 6HR MAX TEMP:  26; 6HR PCP: TRACE;

RUSSELLVILLE   CLOUDY    24  17  74 E5        30.52R WCI  18
6HR MIN TEMP:  23; 6HR MAX TEMP:  25; 6HR PCP: TRACE;

CLINTON        CLOUDY    23  18  80 NE3       30.56S
$$

ARZ036-281300-
EAST ARKANSAS

CITY           SKY/WX    TMP DP  RH WIND       PRES   REMARKS
WEST MEMPHIS   CLOUDY    28  17  63 NE10      30.55R WCI  19
6HR MIN TEMP:  27; 6HR MAX TEMP:  28;

$$

ARZ050-053-066-070-073-281300-
SOUTHWEST ARKANSAS

CITY           SKY/WX    TMP DP  RH WIND       PRES   REMARKS
ARKADELPHIA    PTSUNNY   27  20  75 NE8       30.52R WCI  19
6HR MIN TEMP:  26; 6HR MAX TEMP:  27; 6HR PCP: TRACE;

CAMDEN         CLOUDY    28  19  69 MISG      30.50R
TEXARKANA      CLOUDY    26  21  81 NE8       30.44F WCI  18
6HR MIN TEMP:  26; 6HR MAX TEMP:  26; 6HR PCP: TRACE;

EL DORADO      CLOUDY    28  20  71 NE8       30.48R WCI  20
6HR MIN TEMP:  28; 6HR MAX TEMP:  29;

DE QUEEN       CLOUDY    26  19  74 E10       30.45S WCI  16
6HR MIN TEMP:  25; 6HR MAX TEMP:  27; 6HR PCP: TRACE;

$$

ARZ056-057-069-281300-
SOUTHEAST ARKANSAS

CITY           SKY/WX    TMP DP  RH WIND       PRES   REMARKS
PINE BLUFF     CLOUDY    27  19  72 NE10      30.52R WCI  17
6HR MIN TEMP:  26; 6HR MAX TEMP:  27;

STUTTGART      CLOUDY    27  18  69 NE12      30.54R WCI  16
6HR MIN TEMP:  27; 6HR MAX TEMP:  28;

MONTICELLO     CLOUDY    29  21  72 NE8       30.49R WCI  21
6HR MIN TEMP:  28; 6HR MAX TEMP:  29;


$$




USA.gov is the U.S. government's official web portal to all federal, state and local government web resources and services.